SCP
0 0 0 0 0 0 0 0 0 0 0 0 0 0 0 0 0 0 0 0 0 0 0 0 0 0 0 0 0 0 0 0 0 0 0 0 0 0 0 0 0 0 0 0
0 0 0 0 0 0 0 0 0 0 0 0 0 0 0 0 0 0 0 0 0 0 0 0 0 0 0 0 0 0 0 0 0 0 0 0 0 0 0 0 0 0 0 0
0 0 0 0 0 0 0 0 0 0 0 0 0 0 0 0 0 0 0 0 0 0 0 0 0 0 0 0 0 0 0 0 0 0 0 0 0 0 0 0 0 0 0 0
0 0 0 0 0 0 0 0 0 0 0 0 0 0 0 0 0 0 0 0 0 0 0 0 0 0 0 0 0 0 0 0 0 0 0 0 0 0 0 0 0 0 0 0
0 0 0 0 0 0 0 0 0 0 0 0 0 0 0 0 0 0 0 0 0 0 0 0 0 0 0 0 0 0 0 0 0 0 0 0 0 0 0 0 0 0 0 -0
0 0 0 0 0 0 0 0 0 0 0 0 0 0 0 0 0 0 0 0 0 0 0 0 0 0 0 0 0 0 0 0 0 0 0 0 0 0 0 0 0 0 0 0
0 0 0 0 0 0 0 0 0 0 0 0 0 0 0 0 0 0 0 0 0 0 0 0 0 0 0 0 0 0 0 0 0 0 0 0 0 0 0 0 0 0 0 0
0 0 0 0 0 0 0 0 0 0 0 0 0 0 0 0 0 0 0 0 0 0 0 0 0 0 0 0 0 0 0 0 0 0 0 0 0 0 0 0 0 0 0 0
0 0 0 0 0 0 0 0 0 0 0 0 0 0 0 0 0 0 0 0 0 0 0 0 0 0 0 0 0 0 0 0 0 0 0 0 0 0 0 0 0 0 0 0
0 0 0 0 0 0 0 0 0 0 0 0 0 0 0 0 0 0 0 0 0 0 0 0 0 0 0 0 0 0 0 0 0 0 0 0 0 0 0 0 0 0 0 0
-0 0 0 0 0 0 0 0 0 0 0 0 0 0 0 0 0 0 0 0 0 0 0 0 0 0 0 0 0 0 0 0 0 0 0 0 0 0 0 0 0 0 0 0
0 0 0 0 -0 -0 -0 0 0 0 0 0 0 0 0 0 0 0 0 0 0 0 0 0 0 0 0 0 0 0 0 0 0 0 0 0 0 0 0 0 0 0 0 0
0 0 0 0 0 0 0 0 0 0 0 0 0 0 0 0 0 0 0 0 0 0 0 0 0 0 0 0 0 0 0 0 0 0 0 0 0 0 0 0 0 0 0 0
0 0 0 0 0 0 0 0 0 0 0 0 0 0 0 0 0 0 0 0 0 0 0 0 0 0 0 0 0 0 0 0 0 0 0 0 0 0 0 0 0 0 0 0
0 0 0 0 0 0 0 0 0 0 0 0 0 0 0 0 0 0 0 0 0 0 0 0 0 0 0 0 0 0 0 0 0 0 0 0 0 0 0 0 0 0 0 0
0 0 0 0 0 0 0 0 0 0 0 0 0 0 0 0 0 0 0 0 0 0 0 0 0 0 0 0 0 0 0 0 0 0 0 0 0 0 0 0 0 0 0 0
0 0 0 0 0 0 0 0 0 0 0 0 0 0 0 0 0 0 0 0 0 0 0 0 0 0 0 0 0 0 0 0 0 0 0 0 0 0 0 0 0 0 0 0
0 0 0 0 0 0 0 0 0 0 0 0 0 0 0 0 0 0 0 0 0 0 0 0 0 0 0 0 0 0 0 0 0 0 0 0 0 0 0 0 0 0 0 0
0 0 0 0 0 0 0 0 0 0 0 0 0 0 0 0 0 0 0 0 0 0 0 0 0 0 0 0 0 0 0 0 0 0 0 0 0 0 0 0 0 0 0 0
0 0 0 0 0 0 0 0 0 0 0 0 0 0 0 0 0 0 0 0 0 0 0 0 0 0 0 0 0 0 0 0 0 0 0 0 0 0 0 0 0 0 0 0
0 0 0 0 0 0 0 0 0 0 0 0 0 0 0 0 0 0 0 0 0 0 0 0 0 0 0 0 0 0 0 0 0 0 0 0 0 0 0 0 0 0 0 0
0 0 0 0 0 0 0 0 0 0 0 -0 -0 -0 0 0 0 0 0 0 0 0 0 0 0 0 0 0 0 0 0 0 0 0 0 0 0 0 0 0 0 0 0 0
0 0 0 0 0 0 0 0 0 0 0 0 0 0 0 0 0 0 0 0 0 0 0 0 0 0 0 0 0 0 0 0 0 0 0 0 0 0 0 0 0 0 0 0
0 0 0 0 0 0 0 0 0 0 0 0 0 0 0 0 0 0 0 0 0 0 0 0 0 0 0 0 0 0 0 0 0 0 0 0 0 0 0 0 0 0 0 0
0 0 0 0 0 0 0 0 0 0 0 0 0 0 0 0 0 0 0 0 0 0 0 0 0 0 0 0 0 0 0 0 0 0 0 0 0 0 0 0 0 0 0 0
0 0 0 0 0 0 0 0 0 0 0 0 0 0 0 0 0 0 0 0 0 0 0 0 0 0 0 0 0 0 0 0 0 0 0 0 0 0 0 0 0 0 0 0
0 0 0 0 0 0 0 0 0 0 0 0 0 0 0 0 0 0 0 0 0 0 0 0 0 0 0 0 0 0 0 0 0 0 0 0 0 0 0 0 0 0 0 0
Wind_Speed_500mb
15 22 18 23 31 21 19 14 14 14 14 24 18 21 50 20 15 19 20 17 17 16 16 17 12 14 15 14 15 17 8 10 16 15 22 25 12 13 21 18 16 20 18 18
14 20 17 17 20 18 18 14 23 15 26 24 52 31 8 12 18 25 25 23 18 17 17 14 15 14 13 12 18 21 9 7 11 13 18 26 14 8 21 21 14 12 14 16
11 15 19 15 15 15 12 10 15 13 32 6 15 25 29 30 27 32 24 21 18 18 20 22 21 19 19 18 16 18 10 5 6 13 9 20 21 13 18 17 20 15 16 13
9 10 6 15 20 17 17 14 19 14 11 22 46 53 31 31 40 35 26 21 22 18 23 23 24 21 18 14 15 18 12 6 10 13 5 8 17 12 12 13 13 10 19 20
3 4 17 21 5 4 6 13 15 14 14 32 37 26 25 10 16 14 14 21 23 23 24 25 24 22 20 17 14 13 14 12 11 17 16 9 8 13 19 15 7 10 14 17
2 3 10 12 6 13 12 10 6 15 12 12 20 2 10 24 16 21 25 25 23 22 24 25 24 24 23 21 18 19 16 16 19 22 19 12 11 21 18 13 4 16 14 17
5 6 17 17 28 12 6 13 15 24 24 22 5 21 36 22 27 29 29 28 27 25 25 26 25 25 27 25 24 17 19 24 26 23 22 18 17 20 22 18 16 17 14 14
7 7 16 21 9 8 14 15 29 46 48 37 32 32 32 36 30 32 33 32 32 32 31 27 26 30 31 32 23 22 24 27 28 24 21 16 16 19 24 23 22 18 15 13
18 15 27 24 17 17 32 51 57 56 58 56 51 42 32 31 34 42 40 39 37 38 37 36 34 33 34 30 28 29 31 34 32 29 26 23 21 26 31 26 24 20 19 20
2 24 41 45 48 43 63 70 46 45 40 38 45 40 35 35 35 36 38 41 41 41 43 45 43 42 37 32 30 34 36 38 39 37 33 30 28 30 31 32 30 30 28 26
15 49 44 55 65 73 43 27 34 35 33 33 29 27 31 33 33 33 39 40 43 48 48 49 47 49 46 40 37 39 41 41 43 43 41 37 35 34 36 37 38 37 35 35
21 76 34 62 65 64 63 66 63 54 54 51 42 40 39 38 33 34 34 35 42 49 51 50 50 52 52 51 49 46 45 48 49 49 47 44 43 42 41 39 38 45 45 43
70 83 65 76 73 68 65 60 58 59 44 36 28 33 41 34 31 32 35 38 42 47 49 50 54 56 57 58 57 56 57 50 49 52 52 52 50 49 48 42 45 45 45 46
58 52 54 64 57 51 41 53 52 43 37 35 39 39 34 33 35 31 34 38 40 44 49 53 56 62 60 62 65 64 61 61 58 55 56 56 58 57 54 52 50 51 49 51
62 59 66 67 61 58 49 37 40 41 42 37 33 36 35 36 37 37 37 38 38 44 52 56 61 70 62 63 69 71 70 69 70 65 62 63 62 61 61 61 61 58 54 54
46 53 51 49 52 43 38 35 33 32 28 28 29 28 28 31 33 36 37 38 43 50 56 60 67 70 67 68 70 73 76 75 75 77 74 71 70 70 70 70 69 67 66 68
57 65 57 51 43 42 39 29 19 20 20 20 22 27 29 30 31 34 33 31 36 43 50 57 63 62 64 68 74 76 75 77 79 81 82 80 77 75 75 73 74 73 72 71
57 50 42 16 18 15 18 17 20 21 20 20 22 21 20 21 26 33 39 44 49 52 54 57 59 56 56 59 61 68 67 71 78 84 83 83 81 76 77 77 77 77 81 72
8 5 9 11 10 7 3 5 12 16 16 15 13 15 20 25 31 37 44 50 55 61 57 50 53 53 47 39 44 48 53 54 60 65 69 70 68 63 62 69 73 72 77 71
7 8 9 7 1 7 10 10 11 13 16 19 23 29 31 34 41 47 52 55 54 53 47 42 38 43 41 42 44 44 46 49 49 56 60 62 63 63 63 63 71 88 84 84
21 17 16 15 14 11 13 19 23 24 23 26 29 34 43 49 45 43 39 36 30 29 31 32 31 29 30 33 35 36 41 47 53 47 49 55 61 55 52 50 59 64 65 64
15 13 11 10 13 16 21 23 21 15 14 24 31 36 38 32 31 32 30 23 27 30 31 32 32 31 30 28 26 26 29 33 37 41 45 48 50 51 53 53 54 55 55 56
7 6 8 12 13 11 7 10 14 21 27 33 34 27 23 30 33 34 31 25 28 31 31 31 32 31 32 33 36 38 39 40 41 40 40 41 44 46 49 52 52 55 60 62
3 6 5 3 10 16 18 22 33 35 38 36 31 32 33 29 26 23 21 24 26 30 33 36 35 35 36 35 37 39 37 37 35 34 37 39 45 46 48 51 53 55 56 57
5 9 16 24 21 17 27 33 32 35 33 28 24 22 21 22 25 26 26 27 29 35 37 36 38 40 43 45 46 43 38 36 38 43 44 43 44 44 45 49 54 58 62 63
11 13 15 20 25 30 30 27 23 23 22 21 18 18 18 16 16 21 27 30 34 38 39 42 45 46 46 44 38 37 39 43 42 43 45 45 46 46 51 55 51 49 50 52
13 25 26 23 17 15 15 13 15 16 16 19 20 22 21 23 27 31 33 35 39 43 47 48 51 53 49 46 43 39 36 40 42 44 49 52 54 52 52 48 48 46 44 51
Wind_Direction_500mb
263 276 287 271 268 244 200 198 174 252 252 266 275 271 301 306 294 285 291 290 288 289 299 310 305 302 315 291 291 316 351 327 331 343 337 2 7 35 36 32 16 25 26 6
284 266 275 272 262 243 234 213 236 260 272 264 276 282 243 277 278 276 278 290 277 279 286 288 291 296 283 267 289 292 301 304 332 351 327 343 2 33 44 1 13 22 16 10
267 336 328 315 244 214 205 188 168 200 242 227 277 264 270 293 288 277 273 297 292 264 270 275 282 287 276 283 280 282 307 267 283 314 305 332 6 44 36 352 0 3 349 345
269 350 352 242 306 286 206 232 212 243 219 216 252 270 282 297 290 281 259 287 285 265 264 273 285 295 290 285 263 279 306 276 266 290 285 316 344 9 336 333 348 15 343 340
214 262 283 294 301 83 139 278 247 225 245 260 273 269 277 257 312 263 258 280 284 269 263 270 278 288 290 286 279 277 278 285 269 266 289 211 297 287 304 320 8 359 323 340
352 201 250 242 61 63 62 312 336 94 31 1 146 48 257 259 272 269 279 284 279 273 260 264 271 272 277 275 267 272 284 280 278 275 280 243 228 280 293 292 305 300 302 322
203 267 282 256 289 131 88 234 14 19 358 350 306 281 302 267 264 281 285 289 284 274 267 268 268 269 276 279 274 280 264 264 273 271 269 261 244 258 286 285 276 277 293 299
169 213 273 252 151 179 222 291 311 307 303 290 284 297 298 276 259 258 265 272 275 275 276 271 266 265 271 272 282 272 270 271 277 281 278 263 249 268 278 282 285 283 277 297
177 212 236 209 248 261 281 289 290 293 291 282 279 280 282 284 268 257 258 262 268 273 279 276 274 271 271 278 264 264 265 270 276 280 277 272 254 250 259 274 275 280 284 272
265 258 248 259 280 276 295 295 295 296 303 301 269 268 270 274 272 269 259 258 262 261 267 272 276 279 284 283 270 262 261 265 270 274 277 274 266 262 261 263 268 268 269 265
281 279 280 278 271 270 288 320 315 312 322 306 302 297 286 284 278 276 272 265 260 256 264 272 272 276 280 278 274 269 267 267 268 272 274 274 271 270 266 265 260 261 261 258
250 262 263 273 278 284 290 289 297 299 298 295 288 280 289 295 284 274 269 267 264 262 259 266 267 269 274 274 272 270 265 263 264 268 270 274 276 276 274 273 270 267 268 268
247 266 270 271 280 283 286 287 288 285 287 285 286 285 282 286 291 284 274 268 269 273 272 269 267 267 272 268 268 269 269 268 264 264 266 269 269 271 274 274 273 270 266 266
264 276 281 273 268 273 289 288 294 287 280 286 289 290 293 287 281 285 281 284 280 273 276 275 273 273 275 269 266 268 270 270 266 264 264 266 269 270 269 267 268 274 272 268
266 267 271 280 286 282 283 280 279 280 281 276 278 282 281 284 280 282 282 279 280 276 274 274 274 275 275 272 265 264 267 268 269 269 268 268 267 268 270 271 270 273 274 273
279 279 280 282 280 285 283 271 274 288 280 277 276 276 279 286 288 286 285 286 285 284 287 283 280 283 283 277 273 269 267 269 270 270 269 268 267 267 268 268 269 271 273 274
275 278 277 282 284 288 281 267 265 269 272 274 278 278 278 282 291 299 306 300 294 293 293 290 286 287 285 283 273 271 270 269 268 269 269 270 271 271 273 273 273 272 272 277
274 269 269 274 299 286 260 267 271 277 281 283 290 296 302 310 313 311 307 301 296 292 290 285 282 281 277 277 276 270 271 267 265 265 267 268 270 273 275 277 278 277 277 278
206 222 260 280 300 307 242 246 285 294 301 314 328 333 328 319 313 311 308 308 309 306 305 295 287 286 280 272 271 270 273 273 270 271 271 272 271 271 273 273 271 267 274 276
141 154 144 132 23 16 30 31 24 14 354 335 321 317 314 310 308 309 311 311 307 305 308 309 301 280 277 276 269 262 260 258 258 262 265 262 264 269 268 261 263 274 285 275
90 78 77 72 63 44 11 355 354 348 334 319 322 318 318 319 318 316 313 315 315 319 322 319 315 310 299 286 279 274 274 276 276 277 276 278 269 273 281 288 289 291 292 291
100 79 48 16 3 10 14 7 354 343 321 316 315 317 322 323 332 333 330 317 309 303 303 303 306 307 305 304 306 312 314 310 304 298 293 291 291 293 296 299 299 299 298 298
53 42 19 16 26 29 359 322 318 316 316 319 315 309 306 317 318 320 315 305 295 297 308 315 326 328 323 318 315 313 310 307 304 303 303 306 307 306 304 304 304 304 301 298
94 91 82 354 299 297 317 324 315 308 310 310 306 312 315 318 314 309 309 323 339 339 330 324 318 316 315 316 317 315 314 313 311 306 303 299 292 293 293 294 292 290 290 291
289 283 303 311 311 308 312 316 315 318 320 321 326 332 342 348 344 345 338 327 317 315 317 315 312 310 309 309 311 309 307 308 303 298 301 301 302 300 295 295 293 291 289 287
290 315 328 313 311 315 318 323 326 326 327 339 342 349 347 348 338 320 318 316 312 310 308 307 307 308 308 310 310 312 314 310 308 305 304 300 299 298 300 304 305 302 296 296
312 315 311 313 324 338 345 349 345 347 338 323 337 334 331 325 322 320 319 317 315 313 311 311 311 313 314 315 313 309 302 297 298 298 297 298 299 299 300 300 306 303 304 303
Wind_Speed_850mb
15 22 18 23 31 21 19 14 14 14 14 24 18 21 50 20 15 19 20 17 17 16 16 17 12 14 15 14 15 17 8 10 16 15 22 25 12 13 21 18 16 20 18 18
14 20 17 17 20 18 18 14 23 15 26 24 52 31 8 12 18 25 25 23 18 17 17 14 15 14 13 12 18 21 9 7 11 13 18 26 14 8 21 21 14 12 14 16
11 15 19 15 15 15 12 10 15 13 32 6 15 25 29 30 27 32 24 21 18 18 20 22 21 19 19 18 16 18 10 5 6 13 9 20 21 13 18 17 20 15 16 13
9 10 6 15 20 17 17 14 19 14 11 22 46 53 31 31 40 35 26 21 22 18 23 23 24 21 18 14 15 18 12 6 10 13 5 8 17 12 12 13 13 10 19 20
3 4 17 21 5 4 6 13 15 14 14 32 37 26 25 10 16 14 14 21 23 23 24 25 24 22 20 17 14 13 14 12 11 17 16 9 8 13 19 15 7 10 14 17
2 3 10 12 6 13 12 10 6 15 12 12 20 2 10 24 16 21 25 25 23 22 24 25 24 24 23 21 18 19 16 16 19 22 19 12 11 21 18 13 4 16 14 17
5 6 17 17 28 12 6 13 15 24 24 22 5 21 36 22 27 29 29 28 27 25 25 26 25 25 27 25 24 17 19 24 26 23 22 18 17 20 22 18 16 17 14 14
7 7 16 21 9 8 14 15 29 46 48 37 32 32 32 36 30 32 33 32 32 32 31 27 26 30 31 32 23 22 24 27 28 24 21 16 16 19 24 23 22 18 15 13
18 15 27 24 17 17 32 51 57 56 58 56 51 42 32 31 34 42 40 39 37 38 37 36 34 33 34 30 28 29 31 34 32 29 26 23 21 26 31 26 24 20 19 20
2 24 41 45 48 43 63 70 46 45 40 38 45 40 35 35 35 36 38 41 41 41 43 45 43 42 37 32 30 34 36 38 39 37 33 30 28 30 31 32 30 30 28 26
15 49 44 55 65 73 43 27 34 35 33 33 29 27 31 33 33 33 39 40 43 48 48 49 47 49 46 40 37 39 41 41 43 43 41 37 35 34 36 37 38 37 35 35
21 76 34 62 65 64 63 66 63 54 54 51 42 40 39 38 33 34 34 35 42 49 51 50 50 52 52 51 49 46 45 48 49 49 47 44 43 42 41 39 38 45 45 43
70 83 65 76 73 68 65 60 58 59 44 36 28 33 41 34 31 32 35 38 42 47 49 50 54 56 57 58 57 56 57 50 49 52 52 52 50 49 48 42 45 45 45 46
58 52 54 64 57 51 41 53 52 43 37 35 39 39 34 33 35 31 34 38 40 44 49 53 56 62 60 62 65 64 61 61 58 55 56 56 58 57 54 52 50 51 49 51
62 59 66 67 61 58 49 37 40 41 42 37 33 36 35 36 37 37 37 38 38 44 52 56 61 70 62 63 69 71 70 69 70 65 62 63 62 61 61 61 61 58 54 54
46 53 51 49 52 43 38 35 33 32 28 28 29 28 28 31 33 36 37 38 43 50 56 60 67 70 67 68 70 73 76 75 75 77 74 71 70 70 70 70 69 67 66 68
57 65 57 51 43 42 39 29 19 20 20 20 22 27 29 30 31 34 33 31 36 43 50 57 63 62 64 68 74 76 75 77 79 81 82 80 77 75 75 73 74 73 72 71
57 50 42 16 18 15 18 17 20 21 20 20 22 21 20 21 26 33 39 44 49 52 54 57 59 56 56 59 61 68 67 71 78 84 83 83 81 76 77 77 77 77 81 72
8 5 9 11 10 7 3 5 12 16 16 15 13 15 20 25 31 37 44 50 55 61 57 50 53 53 47 39 44 48 53 54 60 65 69 70 68 63 62 69 73 72 77 71
7 8 9 7 1 7 10 10 11 13 16 19 23 29 31 34 41 47 52 55 54 53 47 42 38 43 41 42 44 44 46 49 49 56 60 62 63 63 63 63 71 88 84 84
21 17 16 15 14 11 13 19 23 24 23 26 29 34 43 49 45 43 39 36 30 29 31 32 31 29 30 33 35 36 41 47 53 47 49 55 61 55 52 50 59 64 65 64
15 13 11 10 13 16 21 23 21 15 14 24 31 36 38 32 31 32 30 23 27 30 31 32 32 31 30 28 26 26 29 33 37 41 45 48 50 51 53 53 54 55 55 56
7 6 8 12 13 11 7 10 14 21 27 33 34 27 23 30 33 34 31 25 28 31 31 31 32 31 32 33 36 38 39 40 41 40 40 41 44 46 49 52 52 55 60 62
3 6 5 3 10 16 18 22 33 35 38 36 31 32 33 29 26 23 21 24 26 30 33 36 35 35 36 35 37 39 37 37 35 34 37 39 45 46 48 51 53 55 56 57
5 9 16 24 21 17 27 33 32 35 33 28 24 22 21 22 25 26 26 27 29 35 37 36 38 40 43 45 46 43 38 36 38 43 44 43 44 44 45 49 54 58 62 63
11 13 15 20 25 30 30 27 23 23 22 21 18 18 18 16 16 21 27 30 34 38 39 42 45 46 46 44 38 37 39 43 42 43 45 45 46 46 51 55 51 49 50 52
13 25 26 23 17 15 15 13 15 16 16 19 20 22 21 23 27 31 33 35 39 43 47 48 51 53 49 46 43 39 36 40 42 44 49 52 54 52 52 48 48 46 44 51
Wind_Direction_850mb
263 276 287 271 268 244 200 198 174 252 252 266 275 271 301 306 294 285 291 290 288 289 299 310 305 302 315 291 291 316 351 327 331 343 337 2 7 35 36 32 16 25 26 6
284 266 275 272 262 243 234 213 236 260 272 264 276 282 243 277 278 276 278 290 277 279 286 288 291 296 283 267 289 292 301 304 332 351 327 343 2 33 44 1 13 22 16 10
267 336 328 315 244 214 205 188 168 200 242 227 277 264 270 293 288 277 273 297 292 264 270 275 282 287 276 283 280 282 307 267 283 314 305 332 6 44 36 352 0 3 349 345
269 350 352 242 306 286 206 232 212 243 219 216 252 270 282 297 290 281 259 287 285 265 264 273 285 295 290 285 263 279 306 276 266 290 285 316 344 9 336 333 348 15 343 340
214 262 283 294 301 83 139 278 247 225 245 260 273 269 277 257 312 263 258 280 284 269 263 270 278 288 290 286 279 277 278 285 269 266 289 211 297 287 304 320 8 359 323 340
352 201 250 242 61 63 62 312 336 94 31 1 146 48 257 259 272 269 279 284 279 273 260 264 271 272 277 275 267 272 284 280 278 275 280 243 228 280 293 292 305 300 302 322
203 267 282 256 289 131 88 234 14 19 358 350 306 281 302 267 264 281 285 289 284 274 267 268 268 269 276 279 274 280 264 264 273 271 269 261 244 258 286 285 276 277 293 299
169 213 273 252 151 179 222 291 311 307 303 290 284 297 298 276 259 258 265 272 275 275 276 271 266 265 271 272 282 272 270 271 277 281 278 263 249 268 278 282 285 283 277 297
177 212 236 209 248 261 281 289 290 293 291 282 279 280 282 284 268 257 258 262 268 273 279 276 274 271 271 278 264 264 265 270 276 280 277 272 254 250 259 274 275 280 284 272
265 258 248 259 280 276 295 295 295 296 303 301 269 268 270 274 272 269 259 258 262 261 267 272 276 279 284 283 270 262 261 265 270 274 277 274 266 262 261 263 268 268 269 265
281 279 280 278 271 270 288 320 315 312 322 306 302 297 286 284 278 276 272 265 260 256 264 272 272 276 280 278 274 269 267 267 268 272 274 274 271 270 266 265 260 261 261 258
250 262 263 273 278 284 290 289 297 299 298 295 288 280 289 295 284 274 269 267 264 262 259 266 267 269 274 274 272 270 265 263 264 268 270 274 276 276 274 273 270 267 268 268
247 266 270 271 280 283 286 287 288 285 287 285 286 285 282 286 291 284 274 268 269 273 272 269 267 267 272 268 268 269 269 268 264 264 266 269 269 271 274 274 273 270 266 266
264 276 281 273 268 273 289 288 294 287 280 286 289 290 293 287 281 285 281 284 280 273 276 275 273 273 275 269 266 268 270 270 266 264 264 266 269 270 269 267 268 274 272 268
266 267 271 280 286 282 283 280 279 280 281 276 278 282 281 284 280 282 282 279 280 276 274 274 274 275 275 272 265 264 267 268 269 269 268 268 267 268 270 271 270 273 274 273
279 279 280 282 280 285 283 271 274 288 280 277 276 276 279 286 288 286 285 286 285 284 287 283 280 283 283 277 273 269 267 269 270 270 269 268 267 267 268 268 269 271 273 274
275 278 277 282 284 288 281 267 265 269 272 274 278 278 278 282 291 299 306 300 294 293 293 290 286 287 285 283 273 271 270 269 268 269 269 270 271 271 273 273 273 272 272 277
274 269 269 274 299 286 260 267 271 277 281 283 290 296 302 310 313 311 307 301 296 292 290 285 282 281 277 277 276 270 271 267 265 265 267 268 270 273 275 277 278 277 277 278
206 222 260 280 300 307 242 246 285 294 301 314 328 333 328 319 313 311 308 308 309 306 305 295 287 286 280 272 271 270 273 273 270 271 271 272 271 271 273 273 271 267 274 276
141 154 144 132 23 16 30 31 24 14 354 335 321 317 314 310 308 309 311 311 307 305 308 309 301 280 277 276 269 262 260 258 258 262 265 262 264 269 268 261 263 274 285 275
90 78 77 72 63 44 11 355 354 348 334 319 322 318 318 319 318 316 313 315 315 319 322 319 315 310 299 286 279 274 274 276 276 277 276 278 269 273 281 288 289 291 292 291
100 79 48 16 3 10 14 7 354 343 321 316 315 317 322 323 332 333 330 317 309 303 303 303 306 307 305 304 306 312 314 310 304 298 293 291 291 293 296 299 299 299 298 298
53 42 19 16 26 29 359 322 318 316 316 319 315 309 306 317 318 320 315 305 295 297 308 315 326 328 323 318 315 313 310 307 304 303 303 306 307 306 304 304 304 304 301 298
94 91 82 354 299 297 317 324 315 308 310 310 306 312 315 318 314 309 309 323 339 339 330 324 318 316 315 316 317 315 314 313 311 306 303 299 292 293 293 294 292 290 290 291
289 283 303 311 311 308 312 316 315 318 320 321 326 332 342 348 344 345 338 327 317 315 317 315 312 310 309 309 311 309 307 308 303 298 301 301 302 300 295 295 293 291 289 287
290 315 328 313 311 315 318 323 326 326 327 339 342 349 347 348 338 320 318 316 312 310 308 307 307 308 308 310 310 312 314 310 308 305 304 300 299 298 300 304 305 302 296 296
312 315 311 313 324 338 345 349 345 347 338 323 337 334 331 325 322 320 319 317 315 313 311 311 311 313 314 315 313 309 302 297 298 298 297 298 299 299 300 300 306 303 304 303